Time,TemperatureF,DewpointF,PressureIn,WindDirection,WindDirectionDegrees,WindSpeedMPH,WindSpeedGustMPH,Humidity,HourlyPrecipIn,Conditions,Clouds,dailyrainin,SoftwareType,DateUTC
2013-06-17 00:01:00,76.0,76.0,29.93,SW,225,2.0,11.0,100,0.00,,,0.00,Weather View 32 v70,2013-06-17 04:01:00,
2013-06-17 00:06:00,75.0,74.7,29.93,SW,225,1.0,11.0,99,0.00,,,0.00,Weather View 32 v70,2013-06-17 04:06:00,
2013-06-17 00:11:00,75.0,74.7,29.93,SW,225,4.0,11.0,99,0.00,,,0.00,Weather View 32 v70,2013-06-17 04:11:00,
2013-06-17 00:16:00,75.0,74.7,29.93,SW,225,1.0,11.0,99,0.00,,,0.00,Weather View 32 v70,2013-06-17 04:16:00,
2013-06-17 00:21:00,75.0,74.7,29.93,SW,225,5.0,11.0,99,0.00,,,0.00,Weather View 32 v70,2013-06-17 04:21:00,
2013-06-17 00:26:00,75.0,74.7,29.94,SW,225,5.0,11.0,99,0.00,,,0.00,Weather View 32 v70,2013-06-17 04:26:00,
2013-06-17 00:31:00,75.0,74.7,29.94,WSW,247,0.0,11.0,99,0.00,,,0.00,Weather View 32 v70,2013-06-17 04:31:00,
2013-06-17 00:36:00,75.0,74.7,29.93,SW,225,3.0,11.0,99,0.00,,,0.00,Weather View 32 v70,2013-06-17 04:36:00,
2013-06-17 00:41:00,75.0,74.7,29.93,West,270,8.0,11.0,99,0.00,,,0.00,Weather View 32 v70,2013-06-17 04:41:00,
2013-06-17 00:46:00,75.0,74.7,29.94,SW,225,1.0,11.0,99,0.00,,,0.00,Weather View 32 v70,2013-06-17 04:46:00,
2013-06-17 00:51:00,75.0,74.7,29.94,SW,225,3.0,11.0,99,0.00,,,0.00,Weather View 32 v70,2013-06-17 04:51:00,
2013-06-17 00:56:00,75.0,74.7,29.93,SSW,202,1.0,11.0,99,0.00,,,0.00,Weather View 32 v70,2013-06-17 04:56:00,
2013-06-17 01:01:00,75.0,74.7,29.93,SW,225,0.0,11.0,99,0.00,,,0.00,Weather View 32 v70,2013-06-17 05:01:00,
2013-06-17 01:06:00,74.0,73.7,29.93,South,180,0.0,10.0,99,0.00,,,0.00,Weather View 32 v70,2013-06-17 05:06:00,
2013-06-17 01:11:00,74.0,73.7,29.93,South,180,0.0,10.0,99,0.00,,,0.00,Weather View 32 v70,2013-06-17 05:11:00,
2013-06-17 01:16:00,74.0,73.7,29.93,SSW,202,0.0,10.0,99,0.00,,,0.00,Weather View 32 v70,2013-06-17 05:16:00,
2013-06-17 01:21:00,74.0,73.7,29.93,SW,225,1.0,10.0,99,0.00,,,0.00,Weather View 32 v70,2013-06-17 05:21:00,
2013-06-17 01:26:00,74.0,73.7,29.93,SW,225,2.0,10.0,99,0.00,,,0.00,Weather View 32 v70,2013-06-17 05:26:00,
2013-06-17 01:31:00,74.0,73.7,29.93,WSW,247,0.0,10.0,99,0.00,,,0.00,Weather View 32 v70,2013-06-17 05:31:00,
2013-06-17 01:36:00,74.0,73.7,29.93,WSW,247,0.0,10.0,99,0.00,,,0.00,Weather View 32 v70,2013-06-17 05:36:00,
2013-06-17 01:41:00,74.0,73.7,29.93,SW,225,0.0,10.0,99,0.00,,,0.00,Weather View 32 v70,2013-06-17 05:41:00,
2013-06-17 01:46:00,74.0,73.7,29.93,SW,225,0.0,10.0,99,0.00,,,0.00,Weather View 32 v70,2013-06-17 05:46:00,
2013-06-17 01:51:00,74.0,73.7,29.93,SW,225,0.0,10.0,99,0.00,,,0.00,Weather View 32 v70,2013-06-17 05:51:00,
2013-06-17 01:56:00,73.0,72.7,29.93,SW,225,0.0,9.0,99,0.00,,,0.00,Weather View 32 v70,2013-06-17 05:56:00,
2013-06-17 02:01:00,73.0,72.7,29.93,SW,225,0.0,9.0,99,0.00,,,0.00,Weather View 32 v70,2013-06-17 06:01:00,
2013-06-17 02:06:00,73.0,72.7,29.93,SW,225,0.0,9.0,99,0.00,,,0.00,Weather View 32 v70,2013-06-17 06:06:00,
2013-06-17 02:11:00,73.0,72.7,29.93,SW,225,0.0,9.0,99,0.00,,,0.00,Weather View 32 v70,2013-06-17 06:11:00,
2013-06-17 02:16:00,73.0,72.7,29.94,SW,225,0.0,9.0,99,0.00,,,0.00,Weather View 32 v70,2013-06-17 06:16:00,
2013-06-17 02:21:00,73.0,72.7,29.94,SSW,202,2.0,9.0,99,0.00,,,0.00,Weather View 32 v70,2013-06-17 06:21:00,
2013-06-17 02:26:00,73.0,72.7,29.93,SW,225,0.0,9.0,99,0.00,,,0.00,Weather View 32 v70,2013-06-17 06:26:00,
2013-06-17 02:31:00,73.0,72.7,29.93,SW,225,0.0,7.0,99,0.00,,,0.00,Weather View 32 v70,2013-06-17 06:31:00,
2013-06-17 02:36:00,73.0,72.7,29.93,SW,225,0.0,7.0,99,0.00,,,0.00,Weather View 32 v70,2013-06-17 06:36:00,
2013-06-17 02:41:00,72.0,71.7,29.93,SW,225,0.0,7.0,99,0.00,,,0.00,Weather View 32 v70,2013-06-17 06:41:00,
2013-06-17 02:46:00,72.0,71.7,29.93,SW,225,0.0,7.0,99,0.00,,,0.00,Weather View 32 v70,2013-06-17 06:46:00,
2013-06-17 02:51:00,72.0,71.7,29.93,SW,225,0.0,7.0,99,0.00,,,0.00,Weather View 32 v70,2013-06-17 06:51:00,
2013-06-17 02:56:00,72.0,71.7,29.93,SW,225,0.0,7.0,99,0.00,,,0.00,Weather View 32 v70,2013-06-17 06:56:00,
2013-06-17 03:01:00,72.0,71.7,29.93,SW,225,0.0,7.0,99,0.00,,,0.00,Weather View 32 v70,2013-06-17 07:01:00,
2013-06-17 03:06:00,72.0,71.7,29.93,SW,225,0.0,7.0,99,0.00,,,0.00,Weather View 32 v70,2013-06-17 07:06:00,
2013-06-17 03:11:00,72.0,71.7,29.93,SW,225,0.0,7.0,99,0.00,,,0.00,Weather View 32 v70,2013-06-17 07:11:00,
2013-06-17 03:16:00,72.0,71.7,29.93,SW,225,0.0,7.0,99,0.00,,,0.00,Weather View 32 v70,2013-06-17 07:16:00,
2013-06-17 03:21:00,72.0,71.7,29.93,SW,225,1.0,7.0,99,0.00,,,0.00,Weather View 32 v70,2013-06-17 07:21:00,
2013-06-17 03:26:00,72.0,71.7,29.93,South,180,3.0,7.0,99,0.00,,,0.00,Weather View 32 v70,2013-06-17 07:26:00,
2013-06-17 03:31:00,72.0,71.7,29.93,West,270,0.0,9.0,99,0.00,,,0.00,Weather View 32 v70,2013-06-17 07:31:00,
2013-06-17 03:36:00,72.0,71.7,29.93,SW,225,1.0,9.0,99,0.00,,,0.00,Weather View 32 v70,2013-06-17 07:36:00,
2013-06-17 03:41:00,72.0,71.7,29.93,SW,225,4.0,9.0,99,0.00,,,0.00,Weather View 32 v70,2013-06-17 07:41:00,
2013-06-17 03:46:00,72.0,71.7,29.93,West,270,0.0,9.0,99,0.00,,,0.00,Weather View 32 v70,2013-06-17 07:46:00,
2013-06-17 03:51:00,72.0,71.7,29.92,South,180,2.0,9.0,99,0.00,,,0.00,Weather View 32 v70,2013-06-17 07:51:00,
2013-06-17 03:56:00,72.0,71.7,29.92,West,270,2.0,9.0,99,0.00,,,0.00,Weather View 32 v70,2013-06-17 07:56:00,
2013-06-17 04:01:00,72.0,71.7,29.92,SW,225,0.0,9.0,99,0.00,,,0.00,Weather View 32 v70,2013-06-17 08:01:00,
2013-06-17 04:06:00,72.0,71.7,29.92,SW,225,4.0,9.0,99,0.00,,,0.00,Weather View 32 v70,2013-06-17 08:06:00,
2013-06-17 04:11:00,72.0,71.7,29.92,SW,225,1.0,9.0,99,0.00,,,0.00,Weather View 32 v70,2013-06-17 08:11:00,
2013-06-17 04:16:00,72.0,71.7,29.92,WSW,247,3.0,9.0,99,0.00,,,0.00,Weather View 32 v70,2013-06-17 08:16:00,
2013-06-17 04:21:00,72.0,71.7,29.92,SW,225,5.0,9.0,99,0.00,,,0.00,Weather View 32 v70,2013-06-17 08:21:00,
2013-06-17 04:26:00,72.0,71.7,29.92,SW,225,3.0,9.0,99,0.00,,,0.00,Weather View 32 v70,2013-06-17 08:26:00,
2013-06-17 04:31:00,72.0,71.7,29.92,SW,225,2.0,9.0,99,0.00,,,0.00,Weather View 32 v70,2013-06-17 08:31:00,
2013-06-17 04:37:00,71.0,70.7,29.92,SW,225,0.0,9.0,99,0.00,,,0.00,Weather View 32 v70,2013-06-17 08:37:00,
2013-06-17 04:42:00,71.0,70.7,29.93,SW,225,0.0,9.0,99,0.00,,,0.00,Weather View 32 v70,2013-06-17 08:42:00,
2013-06-17 04:47:00,71.0,70.7,29.93,SW,225,0.0,9.0,99,0.00,,,0.00,Weather View 32 v70,2013-06-17 08:47:00,
2013-06-17 04:52:00,71.0,70.7,29.93,SW,225,3.0,9.0,99,0.00,,,0.00,Weather View 32 v70,2013-06-17 08:52:00,
2013-06-17 04:57:00,71.0,70.7,29.93,SSW,202,2.0,9.0,99,0.00,,,0.00,Weather View 32 v70,2013-06-17 08:57:00,
2013-06-17 05:02:00,71.0,70.7,29.93,SW,225,7.0,9.0,99,0.00,,,0.00,Weather View 32 v70,2013-06-17 09:02:00,
2013-06-17 05:07:00,71.0,70.7,29.93,SW,225,0.0,9.0,99,0.00,,,0.00,Weather View 32 v70,2013-06-17 09:07:00,
2013-06-17 05:12:00,71.0,70.7,29.93,South,180,0.0,9.0,99,0.00,,,0.00,Weather View 32 v70,2013-06-17 09:12:00,
2013-06-17 05:17:00,71.0,70.7,29.93,SSW,202,1.0,9.0,99,0.00,,,0.00,Weather View 32 v70,2013-06-17 09:17:00,
2013-06-17 05:22:00,71.0,70.7,29.93,SSW,202,0.0,9.0,99,0.00,,,0.00,Weather View 32 v70,2013-06-17 09:22:00,
2013-06-17 05:27:00,71.0,70.7,29.93,SSW,202,0.0,9.0,99,0.00,,,0.00,Weather View 32 v70,2013-06-17 09:27:00,
2013-06-17 05:32:00,71.0,70.7,29.93,SSW,202,0.0,9.0,99,0.00,,,0.00,Weather View 32 v70,2013-06-17 09:32:00,
2013-06-17 05:37:00,71.0,70.7,29.93,SW,225,8.0,9.0,99,0.00,,,0.00,Weather View 32 v70,2013-06-17 09:37:00,
2013-06-17 05:42:00,71.0,70.7,29.93,SW,225,1.0,9.0,99,0.00,,,0.00,Weather View 32 v70,2013-06-17 09:42:00,
2013-06-17 05:47:00,71.0,70.7,29.93,SW,225,2.0,9.0,99,0.00,,,0.00,Weather View 32 v70,2013-06-17 09:47:00,
2013-06-17 05:52:00,71.0,70.7,29.93,SW,225,3.0,9.0,99,0.00,,,0.00,Weather View 32 v70,2013-06-17 09:52:00,
2013-06-17 05:57:00,70.0,69.7,29.93,SW,225,0.0,9.0,99,0.00,,,0.00,Weather View 32 v70,2013-06-17 09:57:00,
2013-06-17 06:02:00,70.0,69.7,29.94,SW,225,1.0,9.0,99,0.00,,,0.00,Weather View 32 v70,2013-06-17 10:02:00,
2013-06-17 06:07:00,70.0,68.8,29.94,SW,225,0.0,9.0,96,0.00,,,0.00,Weather View 32 v70,2013-06-17 10:07:00,
2013-06-17 06:12:00,70.0,67.6,29.94,SW,225,2.0,9.0,92,0.00,,,0.00,Weather View 32 v70,2013-06-17 10:12:00,
2013-06-17 06:17:00,70.0,66.6,29.94,WSW,247,5.0,9.0,89,0.00,,,0.00,Weather View 32 v70,2013-06-17 10:17:00,
2013-06-17 06:22:00,70.0,65.6,29.95,WSW,247,3.0,9.0,86,0.00,,,0.00,Weather View 32 v70,2013-06-17 10:22:00,
2013-06-17 06:27:00,69.0,63.3,29.95,WNW,292,7.0,10.0,82,0.01,,,0.01,Weather View 32 v70,2013-06-17 10:27:00,
2013-06-17 06:32:00,69.0,61.5,29.95,NW,315,2.0,11.0,77,0.01,,,0.01,Weather View 32 v70,2013-06-17 10:32:00,
2013-06-17 06:37:00,69.0,60.0,29.95,West,270,5.0,11.0,73,0.01,,,0.01,Weather View 32 v70,2013-06-17 10:37:00,
2013-06-17 06:42:00,69.0,60.0,29.95,West,270,0.0,11.0,73,0.02,,,0.02,Weather View 32 v70,2013-06-17 10:42:00,
2013-06-17 06:47:00,68.0,59.0,29.95,NE,45,3.0,11.0,73,0.02,,,0.02,Weather View 32 v70,2013-06-17 10:47:00,
2013-06-17 06:52:00,69.0,59.6,29.95,NE,45,0.0,11.0,72,0.02,,,0.02,Weather View 32 v70,2013-06-17 10:52:00,
2013-06-17 06:57:00,68.0,59.0,29.95,NE,45,0.0,11.0,73,0.02,,,0.02,Weather View 32 v70,2013-06-17 10:57:00,
2013-06-17 07:02:00,68.0,58.2,29.96,NE,45,0.0,11.0,71,0.02,,,0.02,Weather View 32 v70,2013-06-17 11:02:00,
2013-06-17 07:07:00,68.0,57.8,29.96,NNW,337,0.0,11.0,70,0.03,,,0.03,Weather View 32 v70,2013-06-17 11:07:00,
2013-06-17 07:12:00,68.0,57.8,29.95,NNW,337,0.0,11.0,70,0.03,,,0.03,Weather View 32 v70,2013-06-17 11:12:00,
2013-06-17 07:17:00,68.0,57.8,29.95,NNW,337,0.0,11.0,70,0.04,,,0.04,Weather View 32 v70,2013-06-17 11:17:00,
2013-06-17 07:22:00,68.0,57.4,29.95,NW,315,0.0,11.0,69,0.04,,,0.04,Weather View 32 v70,2013-06-17 11:22:00,
2013-06-17 07:27:00,68.0,57.4,29.95,NW,315,0.0,11.0,69,0.03,,,0.04,Weather View 32 v70,2013-06-17 11:27:00,
2013-06-17 07:32:00,68.0,57.4,29.95,NW,315,0.0,6.0,69,0.03,,,0.04,Weather View 32 v70,2013-06-17 11:32:00,
2013-06-17 07:37:00,68.0,57.0,29.95,NW,315,0.0,6.0,68,0.04,,,0.05,Weather View 32 v70,2013-06-17 11:37:00,
2013-06-17 07:42:00,69.0,58.0,29.94,NW,315,0.0,6.0,68,0.03,,,0.05,Weather View 32 v70,2013-06-17 11:42:00,
2013-06-17 07:47:00,68.0,57.0,29.94,NW,315,0.0,4.0,68,0.03,,,0.05,Weather View 32 v70,2013-06-17 11:47:00,
2013-06-17 07:52:00,69.0,57.6,29.94,NW,315,0.0,2.0,67,0.03,,,0.05,Weather View 32 v70,2013-06-17 11:52:00,
2013-06-17 07:57:00,69.0,57.6,29.94,NW,315,0.0,1.0,67,0.03,,,0.05,Weather View 32 v70,2013-06-17 11:57:00,
2013-06-17 08:02:00,69.0,57.6,29.94,NW,315,0.0,2.0,67,0.03,,,0.05,Weather View 32 v70,2013-06-17 12:02:00,
2013-06-17 08:07:00,69.0,57.6,29.94,NW,315,0.0,2.0,67,0.02,,,0.05,Weather View 32 v70,2013-06-17 12:07:00,
2013-06-17 08:12:00,69.0,57.6,29.95,NW,315,0.0,2.0,67,0.02,,,0.05,Weather View 32 v70,2013-06-17 12:12:00,
2013-06-17 08:17:00,69.0,57.6,29.95,NW,315,0.0,2.0,67,0.01,,,0.05,Weather View 32 v70,2013-06-17 12:17:00,
2013-06-17 08:22:00,69.0,57.1,29.95,NW,315,0.0,2.0,66,0.01,,,0.05,Weather View 32 v70,2013-06-17 12:22:00,
2013-06-17 08:27:00,69.0,56.7,29.95,NW,315,0.0,2.0,65,0.01,,,0.05,Weather View 32 v70,2013-06-17 12:27:00,
2013-06-17 08:32:00,70.0,57.7,29.94,NW,315,0.0,2.0,65,0.01,,,0.05,Weather View 32 v70,2013-06-17 12:32:00,
2013-06-17 08:37:00,69.0,56.7,29.94,NW,315,0.0,2.0,65,0.00,,,0.05,Weather View 32 v70,2013-06-17 12:37:00,
2013-06-17 08:42:00,70.0,58.1,29.94,NW,315,0.0,2.0,66,0.00,,,0.05,Weather View 32 v70,2013-06-17 12:42:00,
2013-06-17 08:47:00,70.0,58.1,29.94,NW,315,0.0,2.0,66,0.00,,,0.05,Weather View 32 v70,2013-06-17 12:47:00,
2013-06-17 08:52:00,70.0,58.5,29.94,NW,315,0.0,2.0,67,0.00,,,0.05,Weather View 32 v70,2013-06-17 12:52:00,
2013-06-17 08:57:00,70.0,57.7,29.94,NW,315,0.0,2.0,65,0.00,,,0.05,Weather View 32 v70,2013-06-17 12:57:00,
2013-06-17 09:02:00,70.0,57.7,29.94,NW,315,0.0,2.0,65,0.00,,,0.05,Weather View 32 v70,2013-06-17 13:02:00,
2013-06-17 09:07:00,70.0,58.1,29.94,NW,315,0.0,2.0,66,0.00,,,0.05,Weather View 32 v70,2013-06-17 13:07:00,
2013-06-17 09:12:00,71.0,58.6,29.94,NW,315,0.0,1.0,65,0.00,,,0.05,Weather View 32 v70,2013-06-17 13:12:00,
2013-06-17 09:17:00,71.0,59.0,29.94,NW,315,0.0,1.0,66,0.00,,,0.05,Weather View 32 v70,2013-06-17 13:17:00,
2013-06-17 09:22:00,71.0,59.0,29.94,NW,315,0.0,3.0,66,0.00,,,0.05,Weather View 32 v70,2013-06-17 13:22:00,
2013-06-17 09:27:00,71.0,61.5,29.94,NW,315,1.0,4.0,72,0.00,,,0.05,Weather View 32 v70,2013-06-17 13:27:00,
2013-06-17 09:32:00,71.0,61.1,29.94,West,270,0.0,6.0,71,0.00,,,0.05,Weather View 32 v70,2013-06-17 13:32:00,
2013-06-17 09:37:00,71.0,60.3,29.94,SW,225,1.0,6.0,69,0.00,,,0.05,Weather View 32 v70,2013-06-17 13:37:00,
2013-06-17 09:42:00,72.0,60.4,29.93,SW,225,0.0,6.0,67,0.00,,,0.05,Weather View 32 v70,2013-06-17 13:42:00,
2013-06-17 09:47:00,72.0,59.6,29.93,SW,225,0.0,6.0,65,0.00,,,0.05,Weather View 32 v70,2013-06-17 13:47:00,
2013-06-17 09:52:00,72.0,62.4,29.93,SW,225,2.0,6.0,72,0.00,,,0.05,Weather View 32 v70,2013-06-17 13:52:00,
2013-06-17 09:57:00,73.0,65.0,29.93,SW,225,0.0,7.0,76,0.00,,,0.05,Weather View 32 v70,2013-06-17 13:57:00,
2013-06-17 10:02:00,73.0,69.2,29.93,WSW,247,5.0,8.0,88,0.00,,,0.05,Weather View 32 v70,2013-06-17 14:02:00,
2013-06-17 10:07:00,73.0,71.5,29.93,WSW,247,4.0,8.0,95,0.00,,,0.05,Weather View 32 v70,2013-06-17 14:07:00,
2013-06-17 10:12:00,73.0,70.5,29.93,West,270,0.0,8.0,92,0.00,,,0.05,Weather View 32 v70,2013-06-17 14:12:00,
2013-06-17 10:17:00,74.0,73.7,29.93,SW,225,6.0,8.0,99,0.00,,,0.05,Weather View 32 v70,2013-06-17 14:17:00,
2013-06-17 10:22:00,74.0,73.7,29.93,WSW,247,3.0,8.0,99,0.00,,,0.05,Weather View 32 v70,2013-06-17 14:22:00,
2013-06-17 10:27:00,74.0,73.7,29.93,SW,225,4.0,8.0,99,0.00,,,0.05,Weather View 32 v70,2013-06-17 14:27:00,
2013-06-17 10:32:00,75.0,74.7,29.92,WSW,247,7.0,8.0,99,0.00,,,0.05,Weather View 32 v70,2013-06-17 14:32:00,
2013-06-17 10:37:00,75.0,74.7,29.92,SW,225,9.0,9.0,99,0.00,,,0.05,Weather View 32 v70,2013-06-17 14:37:00,
2013-06-17 10:42:00,75.0,74.7,29.92,SW,225,3.0,10.0,99,0.00,,,0.05,Weather View 32 v70,2013-06-17 14:42:00,
2013-06-17 10:47:00,75.0,74.7,29.92,WSW,247,5.0,10.0,99,0.00,,,0.05,Weather View 32 v70,2013-06-17 14:47:00,
2013-06-17 10:52:00,76.0,76.0,29.91,SW,225,3.0,10.0,100,0.00,,,0.05,Weather View 32 v70,2013-06-17 14:52:00,
2013-06-17 10:57:00,76.0,76.0,29.91,WSW,247,5.0,10.0,100,0.00,,,0.05,Weather View 32 v70,2013-06-17 14:57:00,
2013-06-17 11:02:00,77.0,77.0,29.91,WSW,247,5.0,10.0,100,0.00,,,0.05,Weather View 32 v70,2013-06-17 15:02:00,
2013-06-17 11:07:00,77.0,77.0,29.91,SW,225,6.0,10.0,100,0.00,,,0.05,Weather View 32 v70,2013-06-17 15:07:00,
2013-06-17 11:12:00,79.0,79.0,29.90,West,270,5.0,10.0,100,0.00,,,0.05,Weather View 32 v70,2013-06-17 15:12:00,
2013-06-17 11:17:00,78.0,78.0,29.90,WSW,247,7.0,10.0,100,0.00,,,0.05,Weather View 32 v70,2013-06-17 15:17:00,
2013-06-17 11:22:00,79.0,79.0,29.90,SW,225,3.0,10.0,100,0.00,,,0.05,Weather View 32 v70,2013-06-17 15:22:00,
2013-06-17 11:27:00,79.0,79.0,29.90,West,270,6.0,10.0,100,0.00,,,0.05,Weather View 32 v70,2013-06-17 15:27:00,
2013-06-17 11:32:00,79.0,79.0,29.91,WSW,247,6.0,10.0,100,0.00,,,0.05,Weather View 32 v70,2013-06-17 15:32:00,
2013-06-17 11:37:00,78.0,78.0,29.91,WSW,247,4.0,10.0,100,0.00,,,0.05,Weather View 32 v70,2013-06-17 15:37:00,
2013-06-17 11:42:00,78.0,78.0,29.91,WSW,247,7.0,10.0,100,0.00,,,0.05,Weather View 32 v70,2013-06-17 15:42:00,
2013-06-17 11:47:00,78.0,78.0,29.91,SW,225,4.0,10.0,100,0.00,,,0.05,Weather View 32 v70,2013-06-17 15:47:00,
2013-06-17 11:52:00,78.0,78.0,29.91,SW,225,4.0,10.0,100,0.00,,,0.05,Weather View 32 v70,2013-06-17 15:52:00,
2013-06-17 11:57:00,77.0,77.0,29.91,SW,225,2.0,10.0,100,0.00,,,0.05,Weather View 32 v70,2013-06-17 15:57:00,
2013-06-17 12:02:00,77.0,77.0,29.91,WSW,247,7.0,10.0,100,0.00,,,0.05,Weather View 32 v70,2013-06-17 16:02:00,
2013-06-17 12:07:00,78.0,78.0,29.91,West,270,4.0,10.0,100,0.00,,,0.05,Weather View 32 v70,2013-06-17 16:07:00,
2013-06-17 12:12:00,79.0,79.0,29.90,WSW,247,3.0,10.0,100,0.00,,,0.05,Weather View 32 v70,2013-06-17 16:12:00,
2013-06-17 12:17:00,79.0,79.0,29.90,West,270,3.0,10.0,100,0.00,,,0.05,Weather View 32 v70,2013-06-17 16:17:00,
2013-06-17 12:22:00,80.0,80.0,29.90,WSW,247,6.0,9.0,100,0.00,,,0.05,Weather View 32 v70,2013-06-17 16:22:00,
2013-06-17 12:27:00,79.0,79.0,29.90,West,270,2.0,9.0,100,0.00,,,0.05,Weather View 32 v70,2013-06-17 16:27:00,
2013-06-17 12:32:00,80.0,80.0,29.90,WSW,247,4.0,9.0,100,0.00,,,0.05,Weather View 32 v70,2013-06-17 16:32:00,
2013-06-17 12:37:00,81.0,81.0,29.90,WSW,247,6.0,9.0,100,0.00,,,0.05,Weather View 32 v70,2013-06-17 16:37:00,
2013-06-17 12:42:00,81.0,81.0,29.90,SW,225,0.0,9.0,100,0.00,,,0.05,Weather View 32 v70,2013-06-17 16:42:00,
2013-06-17 12:47:00,82.0,82.0,29.90,West,270,3.0,9.0,100,0.00,,,0.05,Weather View 32 v70,2013-06-17 16:47:00,
2013-06-17 12:52:00,82.0,82.0,29.89,West,270,4.0,9.0,100,0.00,,,0.05,Weather View 32 v70,2013-06-17 16:52:00,
2013-06-17 12:57:00,82.0,82.0,29.89,West,270,2.0,9.0,100,0.00,,,0.05,Weather View 32 v70,2013-06-17 16:57:00,
2013-06-17 13:02:00,84.0,82.1,29.88,SSW,202,4.0,8.0,94,0.00,,,0.05,Weather View 32 v70,2013-06-17 17:02:00,
2013-06-17 13:07:00,83.0,81.4,29.88,WSW,247,6.0,7.0,95,0.00,,,0.05,Weather View 32 v70,2013-06-17 17:07:00,
2013-06-17 13:12:00,83.0,81.1,29.89,WSW,247,2.0,7.0,94,0.00,,,0.05,Weather View 32 v70,2013-06-17 17:12:00,
2013-06-17 13:17:00,83.0,81.7,29.89,SW,225,3.0,7.0,96,0.00,,,0.05,Weather View 32 v70,2013-06-17 17:17:00,
2013-06-17 13:22:00,84.0,80.4,29.88,SW,225,2.0,7.0,89,-0.05,,,0.05,Weather View 32 v70,2013-06-17 17:22:00,
2013-06-17 13:27:00,85.0,80.0,29.88,SW,225,2.0,7.0,85,-0.05,,,0.05,Weather View 32 v70,2013-06-17 17:27:00,
2013-06-17 13:32:00,86.0,80.6,29.86,SW,225,1.0,7.0,84,0.00,,,0.05,Weather View 32 v70,2013-06-17 17:32:00,
2013-06-17 13:37:00,86.0,77.1,29.86,East,90,1.0,7.0,75,0.00,,,0.05,Weather View 32 v70,2013-06-17 17:37:00,
2013-06-17 13:42:00,85.0,80.3,29.87,SW,225,0.0,7.0,86,0.00,,,0.05,Weather View 32 v70,2013-06-17 17:42:00,
2013-06-17 13:47:00,85.0,81.4,29.87,WNW,292,0.0,7.0,89,0.00,,,0.05,Weather View 32 v70,2013-06-17 17:47:00,
2013-06-17 13:53:00,85.0,80.0,29.87,WSW,247,4.0,8.0,85,0.00,,,0.05,Weather View 32 v70,2013-06-17 17:53:00,
2013-06-17 13:58:00,85.0,77.7,29.87,SW,225,1.0,9.0,79,0.00,,,0.05,Weather View 32 v70,2013-06-17 17:58:00,
2013-06-17 14:03:00,86.0,76.3,29.86,SW,225,1.0,9.0,73,0.00,,,0.05,Weather View 32 v70,2013-06-17 18:03:00,
2013-06-17 14:08:00,86.0,77.5,29.86,SW,225,1.0,9.0,76,0.00,,,0.05,Weather View 32 v70,2013-06-17 18:08:00,
2013-06-17 14:13:00,86.0,77.1,29.85,North,360,0.0,9.0,75,0.00,,,0.05,Weather View 32 v70,2013-06-17 18:13:00,
2013-06-17 14:18:00,86.0,77.5,29.85,North,360,0.0,9.0,76,0.00,,,0.05,Weather View 32 v70,2013-06-17 18:18:00,
2013-06-17 14:23:00,87.0,75.1,29.85,SW,225,0.0,9.0,68,0.00,,,0.05,Weather View 32 v70,2013-06-17 18:23:00,
2013-06-17 14:28:00,87.0,77.3,29.85,SW,225,1.0,9.0,73,0.00,,,0.05,Weather View 32 v70,2013-06-17 18:28:00,
2013-06-17 14:33:00,87.0,77.7,29.85,West,270,0.0,9.0,74,0.00,,,0.05,Weather View 32 v70,2013-06-17 18:33:00,
2013-06-17 14:38:00,86.0,73.3,29.85,South,180,0.0,9.0,66,0.00,,,0.05,Weather View 32 v70,2013-06-17 18:38:00,
2013-06-17 14:43:00,86.0,75.5,29.85,South,180,0.0,9.0,71,0.00,,,0.05,Weather View 32 v70,2013-06-17 18:43:00,
2013-06-17 14:48:00,86.0,75.9,29.85,South,180,0.0,9.0,72,0.00,,,0.05,Weather View 32 v70,2013-06-17 18:48:00,
2013-06-17 14:53:00,85.0,74.5,29.85,South,180,6.0,9.0,71,0.00,,,0.05,Weather View 32 v70,2013-06-17 18:53:00,
2013-06-17 14:58:00,85.0,75.3,29.85,WSW,247,3.0,7.0,73,0.00,,,0.05,Weather View 32 v70,2013-06-17 18:58:00,
2013-06-17 15:03:00,86.0,70.4,29.84,SW,225,1.0,7.0,60,0.00,,,0.05,Weather View 32 v70,2013-06-17 19:03:00,
2013-06-17 15:08:00,86.0,70.9,29.84,SW,225,1.0,7.0,61,0.00,,,0.05,Weather View 32 v70,2013-06-17 19:08:00,
2013-06-17 15:13:00,86.0,70.9,29.84,SW,225,0.0,7.0,61,0.00,,,0.05,Weather View 32 v70,2013-06-17 19:13:00,
2013-06-17 15:18:00,85.0,74.1,29.84,West,270,1.0,7.0,70,0.00,,,0.05,Weather View 32 v70,2013-06-17 19:18:00,
2013-06-17 15:23:00,85.0,76.9,29.85,WSW,247,0.0,7.0,77,0.00,,,0.05,Weather View 32 v70,2013-06-17 19:23:00,
2013-06-17 15:28:00,83.0,74.6,29.85,West,270,9.0,9.0,76,0.00,,,0.05,Weather View 32 v70,2013-06-17 19:28:00,
2013-06-17 15:33:00,84.0,77.9,29.84,SW,225,1.0,9.0,82,0.00,,,0.05,Weather View 32 v70,2013-06-17 19:33:00,
2013-06-17 15:38:00,83.0,74.2,29.84,SW,225,6.0,9.0,75,0.00,,,0.05,Weather View 32 v70,2013-06-17 19:38:00,
2013-06-17 15:43:00,82.0,72.4,29.85,WSW,247,7.0,10.0,73,0.00,,,0.05,Weather View 32 v70,2013-06-17 19:43:00,
2013-06-17 15:48:00,82.0,78.1,29.85,WSW,247,7.0,10.0,88,0.00,,,0.05,Weather View 32 v70,2013-06-17 19:48:00,
2013-06-17 15:53:00,81.0,77.8,29.85,WSW,247,5.0,10.0,90,0.00,,,0.05,Weather View 32 v70,2013-06-17 19:53:00,
2013-06-17 15:58:00,80.0,80.0,29.85,West,270,15.0,15.0,100,0.00,,,0.05,Weather View 32 v70,2013-06-17 19:58:00,
2013-06-17 16:03:00,77.0,77.0,29.87,WSW,247,7.0,16.0,100,0.00,,,0.05,Weather View 32 v70,2013-06-17 20:03:00,
2013-06-17 16:08:00,74.0,73.7,29.87,West,270,9.0,16.0,99,0.01,,,0.06,Weather View 32 v70,2013-06-17 20:08:00,
2013-06-17 16:13:00,73.0,72.1,29.88,West,270,0.0,16.0,97,0.02,,,0.07,Weather View 32 v70,2013-06-17 20:13:00,
2013-06-17 16:18:00,73.0,70.5,29.88,West,270,0.0,16.0,92,0.02,,,0.07,Weather View 32 v70,2013-06-17 20:18:00,
2013-06-17 16:23:00,73.0,67.9,29.87,West,270,0.0,16.0,84,0.03,,,0.08,Weather View 32 v70,2013-06-17 20:23:00,
2013-06-17 16:28:00,73.0,65.0,29.87,West,270,0.0,16.0,76,0.03,,,0.08,Weather View 32 v70,2013-06-17 20:28:00,
2013-06-17 16:33:00,74.0,68.1,29.87,West,270,0.0,16.0,82,0.03,,,0.08,Weather View 32 v70,2013-06-17 20:33:00,
2013-06-17 16:38:00,74.0,62.7,29.87,West,270,0.0,16.0,68,0.03,,,0.08,Weather View 32 v70,2013-06-17 20:38:00,
2013-06-17 16:43:00,75.0,63.3,29.86,West,270,0.0,16.0,67,0.03,,,0.08,Weather View 32 v70,2013-06-17 20:43:00,
2013-06-17 16:48:00,74.0,65.2,29.86,West,270,0.0,16.0,74,0.03,,,0.08,Weather View 32 v70,2013-06-17 20:48:00,
2013-06-17 16:53:00,75.0,65.7,29.86,West,270,0.0,16.0,73,0.03,,,0.08,Weather View 32 v70,2013-06-17 20:53:00,
2013-06-17 16:58:00,75.0,66.9,29.86,West,270,0.0,16.0,76,0.03,,,0.08,Weather View 32 v70,2013-06-17 20:58:00,
2013-06-17 17:03:00,75.0,64.1,29.86,West,270,0.0,13.0,69,0.03,,,0.08,Weather View 32 v70,2013-06-17 21:03:00,
2013-06-17 17:08:00,76.0,65.5,29.86,West,270,0.0,10.0,70,0.02,,,0.08,Weather View 32 v70,2013-06-17 21:08:00,
2013-06-17 17:13:00,76.0,71.1,29.85,West,270,0.0,4.0,85,0.01,,,0.08,Weather View 32 v70,2013-06-17 21:13:00,
2013-06-17 17:18:00,76.0,65.9,29.85,West,270,0.0,0.0,71,0.01,,,0.08,Weather View 32 v70,2013-06-17 21:18:00,
2013-06-17 17:23:00,77.0,68.0,29.84,West,270,0.0,2.0,74,0.00,,,0.08,Weather View 32 v70,2013-06-17 21:23:00,
2013-06-17 17:28:00,77.0,68.0,29.84,West,270,0.0,4.0,74,0.00,,,0.08,Weather View 32 v70,2013-06-17 21:28:00,
2013-06-17 17:33:00,77.0,70.0,29.84,West,270,0.0,4.0,79,0.00,,,0.08,Weather View 32 v70,2013-06-17 21:33:00,
2013-06-17 17:38:00,78.0,72.0,29.84,West,270,2.0,4.0,82,0.00,,,0.08,Weather View 32 v70,2013-06-17 21:38:00,
2013-06-17 17:43:00,77.0,73.2,29.84,SW,225,2.0,6.0,88,0.00,,,0.08,Weather View 32 v70,2013-06-17 21:43:00,
2013-06-17 17:48:00,77.0,72.5,29.84,SW,225,2.0,6.0,86,0.00,,,0.08,Weather View 32 v70,2013-06-17 21:48:00,
2013-06-17 17:53:00,78.0,72.0,29.83,SW,225,1.0,6.0,82,0.00,,,0.08,Weather View 32 v70,2013-06-17 21:53:00,
2013-06-17 17:58:00,78.0,75.5,29.83,SW,225,1.0,6.0,92,0.00,,,0.08,Weather View 32 v70,2013-06-17 21:58:00,
2013-06-17 18:03:00,78.0,76.1,29.83,SW,225,3.0,6.0,94,0.00,,,0.08,Weather View 32 v70,2013-06-17 22:03:00,
2013-06-17 18:08:00,79.0,77.8,29.83,SW,225,3.0,6.0,96,0.00,,,0.08,Weather View 32 v70,2013-06-17 22:08:00,
2013-06-17 18:13:00,79.0,79.0,29.84,SW,225,3.0,6.0,100,0.00,,,0.08,Weather View 32 v70,2013-06-17 22:13:00,
2013-06-17 18:18:00,78.0,78.0,29.84,WSW,247,4.0,6.0,100,0.00,,,0.08,Weather View 32 v70,2013-06-17 22:18:00,
2013-06-17 18:23:00,78.0,77.7,29.85,WSW,247,1.0,6.0,99,0.00,,,0.08,Weather View 32 v70,2013-06-17 22:23:00,
2013-06-17 18:28:00,79.0,78.7,29.85,WSW,247,1.0,6.0,99,0.00,,,0.08,Weather View 32 v70,2013-06-17 22:28:00,
2013-06-17 18:33:00,79.0,79.0,29.84,WSW,247,1.0,7.0,100,0.00,,,0.08,Weather View 32 v70,2013-06-17 22:33:00,
2013-06-17 18:38:00,80.0,80.0,29.84,WSW,247,0.0,7.0,100,0.00,,,0.08,Weather View 32 v70,2013-06-17 22:38:00,
2013-06-17 18:43:00,80.0,80.0,29.85,WSW,247,0.0,7.0,100,0.00,,,0.08,Weather View 32 v70,2013-06-17 22:43:00,
2013-06-17 18:48:00,81.0,81.0,29.85,WSW,247,0.0,7.0,100,0.00,,,0.08,Weather View 32 v70,2013-06-17 22:48:00,
2013-06-17 18:53:00,81.0,81.0,29.84,West,270,0.0,7.0,100,0.00,,,0.08,Weather View 32 v70,2013-06-17 22:53:00,
2013-06-17 18:58:00,81.0,81.0,29.84,West,270,0.0,7.0,100,0.00,,,0.08,Weather View 32 v70,2013-06-17 22:58:00,
2013-06-17 19:03:00,81.0,81.0,29.83,West,270,0.0,7.0,100,0.00,,,0.08,Weather View 32 v70,2013-06-17 23:03:00,
2013-06-17 19:08:00,81.0,81.0,29.83,West,270,0.0,7.0,100,0.00,,,0.08,Weather View 32 v70,2013-06-17 23:08:00,
2013-06-17 19:13:00,81.0,81.0,29.83,West,270,0.0,7.0,100,0.00,,,0.08,Weather View 32 v70,2013-06-17 23:13:00,
2013-06-17 19:18:00,81.0,81.0,29.83,West,270,0.0,7.0,100,0.00,,,0.08,Weather View 32 v70,2013-06-17 23:18:00,
2013-06-17 19:23:00,81.0,81.0,29.82,West,270,0.0,7.0,100,0.00,,,0.08,Weather View 32 v70,2013-06-17 23:23:00,
2013-06-17 19:28:00,81.0,81.0,29.82,West,270,0.0,7.0,100,0.00,,,0.08,Weather View 32 v70,2013-06-17 23:28:00,
2013-06-17 19:33:00,81.0,81.0,29.82,West,270,0.0,6.0,100,0.00,,,0.08,Weather View 32 v70,2013-06-17 23:33:00,
2013-06-17 19:38:00,80.0,80.0,29.82,West,270,0.0,5.0,100,0.00,,,0.08,Weather View 32 v70,2013-06-17 23:38:00,
2013-06-17 19:43:00,80.0,80.0,29.83,West,270,0.0,4.0,100,0.00,,,0.08,Weather View 32 v70,2013-06-17 23:43:00,
2013-06-17 19:48:00,79.0,79.0,29.83,West,270,0.0,4.0,100,0.00,,,0.08,Weather View 32 v70,2013-06-17 23:48:00,
2013-06-17 19:53:00,79.0,79.0,29.83,West,270,0.0,0.0,100,0.00,,,0.08,Weather View 32 v70,2013-06-17 23:53:00,
2013-06-17 19:58:00,78.0,78.0,29.83,West,270,0.0,0.0,100,0.00,,,0.08,Weather View 32 v70,2013-06-17 23:58:00,
2013-06-17 20:03:00,78.0,78.0,29.83,West,270,0.0,0.0,100,0.00,,,0.08,Weather View 32 v70,2013-06-18 00:03:00,
2013-06-17 20:08:00,77.0,77.0,29.83,West,270,0.0,0.0,100,0.00,,,0.08,Weather View 32 v70,2013-06-18 00:08:00,
2013-06-17 20:13:00,76.0,76.0,29.83,West,270,0.0,0.0,100,0.00,,,0.08,Weather View 32 v70,2013-06-18 00:13:00,
2013-06-17 20:18:00,76.0,76.0,29.83,West,270,0.0,0.0,100,0.00,,,0.08,Weather View 32 v70,2013-06-18 00:18:00,
2013-06-17 20:23:00,76.0,75.4,29.84,West,270,0.0,0.0,98,0.00,,,0.08,Weather View 32 v70,2013-06-18 00:23:00,
2013-06-17 20:28:00,76.0,74.5,29.84,West,270,0.0,0.0,95,0.00,,,0.08,Weather View 32 v70,2013-06-18 00:28:00,
2013-06-17 20:33:00,75.0,72.5,29.84,West,270,0.0,0.0,92,0.00,,,0.08,Weather View 32 v70,2013-06-18 00:33:00,
2013-06-17 20:38:00,75.0,73.1,29.84,SW,225,3.0,3.0,94,0.00,,,0.08,Weather View 32 v70,2013-06-18 00:38:00,
2013-06-17 20:43:00,75.0,72.5,29.85,SW,225,2.0,5.0,92,0.00,,,0.08,Weather View 32 v70,2013-06-18 00:43:00,
2013-06-17 20:48:00,75.0,72.2,29.85,SW,225,0.0,6.0,91,0.00,,,0.08,Weather View 32 v70,2013-06-18 00:48:00,
2013-06-17 20:53:00,75.0,72.2,29.85,SW,225,4.0,6.0,91,0.00,,,0.08,Weather View 32 v70,2013-06-18 00:53:00,
2013-06-17 20:58:00,75.0,71.5,29.85,SW,225,1.0,6.0,89,0.00,,,0.08,Weather View 32 v70,2013-06-18 00:58:00,
2013-06-17 21:03:00,74.0,70.5,29.85,SW,225,1.0,6.0,89,0.00,,,0.08,Weather View 32 v70,2013-06-18 01:03:00,
2013-06-17 21:08:00,74.0,70.5,29.85,SSE,157,0.0,6.0,89,0.00,,,0.08,Weather View 32 v70,2013-06-18 01:08:00,
2013-06-17 21:13:00,74.0,70.9,29.85,SSE,157,0.0,6.0,90,0.00,,,0.08,Weather View 32 v70,2013-06-18 01:13:00,
2013-06-17 21:18:00,74.0,70.5,29.85,SSE,157,0.0,6.0,89,0.00,,,0.08,Weather View 32 v70,2013-06-18 01:18:00,
2013-06-17 21:23:00,74.0,70.9,29.85,SW,225,4.0,6.0,90,0.00,,,0.08,Weather View 32 v70,2013-06-18 01:23:00,
2013-06-17 21:28:00,74.0,70.5,29.85,SSW,202,1.0,6.0,89,0.00,,,0.08,Weather View 32 v70,2013-06-18 01:28:00,
2013-06-17 21:33:00,74.0,70.9,29.85,SW,225,0.0,6.0,90,0.00,,,0.08,Weather View 32 v70,2013-06-18 01:33:00,
2013-06-17 21:38:00,73.0,69.6,29.85,SW,225,0.0,6.0,89,0.00,,,0.08,Weather View 32 v70,2013-06-18 01:38:00,
2013-06-17 21:43:00,73.0,69.6,29.86,SW,225,0.0,6.0,89,0.00,,,0.08,Weather View 32 v70,2013-06-18 01:43:00,
2013-06-17 21:48:00,73.0,69.2,29.86,SW,225,1.0,6.0,88,0.00,,,0.08,Weather View 32 v70,2013-06-18 01:48:00,
2013-06-17 21:53:00,73.0,69.2,29.87,SW,225,0.0,6.0,88,-0.08,,,0.08,Weather View 32 v70,2013-06-18 01:53:00,
2013-06-17 21:58:00,73.0,68.9,29.87,SW,225,0.0,6.0,87,0.00,,,0.08,Weather View 32 v70,2013-06-18 01:58:00,
2013-06-17 22:04:00,73.0,69.2,29.87,SW,225,0.0,6.0,88,0.00,,,0.08,Weather View 32 v70,2013-06-18 02:04:00,
2013-06-17 22:09:00,73.0,68.9,29.87,SW,225,0.0,6.0,87,0.00,,,0.08,Weather View 32 v70,2013-06-18 02:09:00,
2013-06-17 22:14:00,73.0,68.5,29.87,SW,225,0.0,6.0,86,0.00,,,0.08,Weather View 32 v70,2013-06-18 02:14:00,
2013-06-17 22:19:00,73.0,68.9,29.87,SW,225,3.0,6.0,87,0.00,,,0.08,Weather View 32 v70,2013-06-18 02:19:00,
2013-06-17 22:24:00,73.0,68.5,29.88,SW,225,0.0,6.0,86,0.00,,,0.08,Weather View 32 v70,2013-06-18 02:24:00,
2013-06-17 22:29:00,73.0,68.2,29.88,SW,225,0.0,6.0,85,0.00,,,0.08,Weather View 32 v70,2013-06-18 02:29:00,
2013-06-17 22:34:00,73.0,67.9,29.88,SW,225,0.0,6.0,84,0.00,,,0.08,Weather View 32 v70,2013-06-18 02:34:00,
2013-06-17 22:39:00,73.0,67.9,29.88,SW,225,0.0,6.0,84,0.00,,,0.08,Weather View 32 v70,2013-06-18 02:39:00,
2013-06-17 22:44:00,72.0,66.9,29.88,SW,225,0.0,6.0,84,0.00,,,0.08,Weather View 32 v70,2013-06-18 02:44:00,
2013-06-17 22:49:00,72.0,66.5,29.88,SW,225,0.0,6.0,83,0.00,,,0.08,Weather View 32 v70,2013-06-18 02:49:00,
2013-06-17 22:54:00,72.0,66.5,29.89,SW,225,0.0,6.0,83,0.00,,,0.08,Weather View 32 v70,2013-06-18 02:54:00,
2013-06-17 22:59:00,72.0,65.8,29.89,SW,225,0.0,6.0,81,0.00,,,0.08,Weather View 32 v70,2013-06-18 02:59:00,
2013-06-17 23:04:00,72.0,65.8,29.89,SW,225,0.0,6.0,81,0.00,,,0.08,Weather View 32 v70,2013-06-18 03:04:00,
2013-06-17 23:09:00,72.0,64.7,29.89,WSW,247,2.0,6.0,78,0.00,,,0.08,Weather View 32 v70,2013-06-18 03:09:00,
2013-06-17 23:14:00,72.0,64.7,29.89,SW,225,0.0,10.0,78,0.00,,,0.08,Weather View 32 v70,2013-06-18 03:14:00,
2013-06-17 23:19:00,72.0,64.4,29.89,SW,225,3.0,10.0,77,0.00,,,0.08,Weather View 32 v70,2013-06-18 03:19:00,
2013-06-17 23:24:00,72.0,64.4,29.89,SW,225,6.0,10.0,77,0.00,,,0.08,Weather View 32 v70,2013-06-18 03:24:00,
2013-06-17 23:29:00,72.0,64.0,29.89,SW,225,3.0,10.0,76,0.00,,,0.08,Weather View 32 v70,2013-06-18 03:29:00,
2013-06-17 23:34:00,72.0,65.1,29.89,WSW,247,4.0,10.0,79,0.00,,,0.08,Weather View 32 v70,2013-06-18 03:34:00,
2013-06-17 23:39:00,72.0,66.5,29.89,WSW,247,0.0,10.0,83,0.00,,,0.08,Weather View 32 v70,2013-06-18 03:39:00,
2013-06-17 23:44:00,72.0,69.5,29.89,SW,225,2.0,10.0,92,0.00,,,0.08,Weather View 32 v70,2013-06-18 03:44:00,
2013-06-17 23:49:00,72.0,68.9,29.89,WSW,247,2.0,10.0,90,0.00,,,0.08,Weather View 32 v70,2013-06-18 03:49:00,
2013-06-17 23:54:00,72.0,69.9,29.89,SW,225,4.0,10.0,93,0.00,,,0.08,Weather View 32 v70,2013-06-18 03:54:00,
2013-06-17 23:59:00,72.0,69.5,29.89,SW,225,0.0,10.0,92,0.00,,,0.08,Weather View 32 v70,2013-06-18 03:59:00,